Location: Couloutre
(47.4081°N, 3.2259°E)
Time: 09:33:54
(UTC+00:00)

Cosmos 1656 Rocket - Pass Details

Date: 27 February 2020
Orbit: 794 x 848 km, 71.1° (Epoch: 27 March)

Event Time Altitude Azimuth Distance (km) Brightness Sun altitude
Rises 18:16:11 0° 202° (SSW) 3,321 7.1 -8.9°
Reaches altitude 10° 18:18:35 10° 202° (SSW) 2,402 6.4 -9.3°
Maximum altitude 18:24:05 83° 115° (ESE) 839 3.6 -10.2°
Drops below altitude 10° 18:29:43 10° 29° (NNE) 2,455 5.8 -11.2°
Sets 18:32:11 0° 28° (NNE) 3,400 6.6 -11.6°
